This demonstration page uses our WeatherBlox Daily Observations layout. Learn more.

Left ArrowRight Arrow

40.92945, -100.16068

Hourly Observations for March 17, 2021

Temp ( °F °C ) Dew Point ( °F °C ) Humidity (%) Winds ( mph kmh ) Pressure ( in mb ) Visibility ( mi km ) Precip ( " mm )
12:15 am 00:15 Cloudy 36 2 29 -1.7 77 77 NNW 8 13 30.08 1019 10 16 N/A
12:35 am 00:35 Cloudy 34 1.3 29 -1.6 81 81 NNW 12 19 30.05 1018 10 16 N/A
12:55 am 00:55 Partly Cloudy 33 0.5 28 -2.1 83 83 NNW 15 24 30.02 1017 10 16 N/A
1:15 am 01:15 Clear 33 0.5 28 -2.5 81 81 N 10 17 30.04 1017 10 16 N/A
1:35 am 01:35 Clear 32 0.2 27 -2.7 81 81 NNE 6 9 30.07 1018 10 16 N/A
1:55 am 01:55 Partly Cloudy 32 undefined 28 -2.5 83 83 N 7 11 30.06 1018 10 16 N/A
2:15 am 02:15 Mostly Cloudy 32 0.1 28 -2.2 85 85 N 6 9 30.07 1018 10 16 N/A
2:35 am 02:35 Cloudy 33 0.5 28 -2.5 81 81 N 13 20 30.06 1018 10 16 N/A
2:55 am 02:55 Cloudy 33 0.6 28 -2.5 80 80 N 13 20 30.06 1018 10 16 N/A
3:15 am 03:15 Cloudy 33 0.7 28 -2.2 81 81 N 12 19 30.06 1018 10 16 N/A
3:35 am 03:35 Cloudy 33 0.8 27 -2.6 78 78 N 15 24 30.04 1017 10 16 N/A
3:55 am 03:55 Partly Cloudy 33 0.4 27 -2.7 80 80 N 12 19 30.05 1018 10 16 N/A
4:15 am 04:15 Cloudy 33 0.3 28 -2.5 82 82 N 9 15 30.05 1018 10 16 N/A
4:35 am 04:35 Cloudy 33 0.6 27 -2.6 79 79 N 10 17 30.06 1018 10 16 N/A
4:55 am 04:55 Cloudy 33 0.7 27 -2.6 79 79 NNE 13 20 30.07 1018 10 16 N/A
5:15 am 05:15 Cloudy 33 0.6 28 -2.5 80 80 N 13 20 30.06 1018 10 16 N/A
5:35 am 05:35 Cloudy 33 0.7 28 -2.5 79 79 N 14 22 30.05 1018 10 16 N/A
5:55 am 05:55 Mostly Cloudy 33 0.6 27 -2.7 79 79 N 13 20 30.04 1017 10 16 N/A
6:15 am 06:15 Partly Cloudy 33 0.4 27 -2.6 81 81 N 15 24 30.02 1017 10 16 N/A
6:35 am 06:35 Clear 33 0.3 27 -2.7 81 81 N 14 22 30.02 1017 10 16 N/A
6:55 am 06:55 Clear 32 0.1 28 -2.5 83 83 N 12 19 30.05 1017 10 16 N/A
7:15 am 07:15 Clear 32 undefined 28 -2.5 83 83 N 10 17 30.04 1017 10 16 N/A
7:35 am 07:35 Clear 32 undefined 28 -2.5 83 83 N 8 13 30.07 1018 10 16 N/A
7:55 am 07:55 Sunny 32 undefined 28 -2.5 83 83 N 8 13 30.07 1018 10 16 N/A
8:15 am 08:15 Sunny 32 -0.1 28 -2.5 84 84 NW 10 17 30.09 1019 10 16 N/A
8:35 am 08:35 Sunny 32 -0.1 27 -2.6 83 83 NNW 9 15 30.09 1019 10 16 N/A
8:55 am 08:55 Sunny 32 undefined 28 -2.4 84 84 NW 8 13 30.10 1019 10 16 N/A
9:15 am 09:15 Sunny 32 undefined 28 -2.3 85 85 NW 9 15 30.11 1020 10 16 N/A
9:35 am 09:35 Sunny 32 undefined 28 -2.2 85 85 NNW 8 13 30.12 1020 10 16 N/A
9:55 am 09:55 Sunny 33 0.5 28 -2.5 81 81 N 12 19 30.11 1020 10 16 N/A
10:15 am 10:15 Sunny 34 1 28 -2.1 80 80 N 13 20 30.11 1020 10 16 N/A
10:35 am 10:35 Partly Cloudy 35 1.5 29 -1.9 78 78 N 18 30 30.09 1019 10 16 N/A
10:55 am 10:55 Mostly Cloudy 36 2.1 29 -1.4 78 78 N 18 30 30.10 1019 10 16 N/A
11:15 am 11:15 Cloudy 37 2.5 29 -1.4 76 76 N 23 37 30.10 1019 10 16 N/A
11:35 am 11:35 Cloudy 37 2.6 30 -0.9 78 78 N 18 30 30.10 1019 10 16 N/A
11:55 am 11:55 Cloudy 37 3 30 -0.9 76 76 N 20 31 30.10 1019 10 16 N/A
12:15 pm 12:15 Cloudy 37 3 30 -1 75 75 N 16 26 30.11 1020 10 16 N/A
12:35 pm 12:35 Cloudy 38 3.4 30 -1.1 73 73 N 20 31 30.10 1019 10 16 N/A
12:55 pm 12:55 Cloudy 38 3.3 29 -1.4 72 72 NNE 15 24 30.11 1020 10 16 N/A
1:15 pm 13:15 Cloudy 38 3.5 29 -1.5 70 70 NNE 18 30 30.11 1020 10 16 N/A
1:35 pm 13:35 Cloudy 38 3.6 29 -1.6 69 69 N 21 33 30.11 1020 10 16 N/A
1:55 pm 13:55 Cloudy 39 3.7 28 -2 67 67 NNE 18 30 30.11 1020 10 16 N/A
2:15 pm 14:15 Cloudy 39 4 29 -1.9 66 66 N 21 33 30.11 1020 10 16 N/A
2:35 pm 14:35 Cloudy 39 4 28 -2 65 65 N 24 39 30.11 1020 10 16 N/A
2:55 pm 14:55 Cloudy 39 4 29 -1.4 68 68 N 20 31 30.11 1020 10 16 N/A
3:15 pm 15:15 Cloudy 39 3.8 29 -1.5 69 69 N 22 35 30.11 1020 10 16 N/A
3:35 pm 15:35 Cloudy 39 4.1 30 -0.9 70 70 N 20 31 30.11 1020 10 16 N/A
3:55 pm 15:55 Cloudy 40 4.7 31 -0.4 70 70 NNE 18 30 30.10 1019 10 16 N/A
4:15 pm 16:15 Cloudy 40 4.6 31 -0.8 68 68 NNE 20 31 30.10 1019 10 16 N/A
4:35 pm 16:35 Cloudy 40 4.5 31 -0.6 70 70 N 20 31 30.11 1020 10 16 N/A
4:55 pm 16:55 Cloudy 40 4.2 31 -0.4 72 72 N 21 33 30.12 1020 10 16 N/A
5:15 pm 17:15 Cloudy 39 4 31 -0.5 73 73 N 21 33 30.11 1020 10 16 N/A
5:35 pm 17:35 Cloudy 39 3.7 31 -0.5 74 74 N 18 30 30.11 1020 10 16 N/A
5:55 pm 17:55 Cloudy 39 3.7 31 -0.5 74 74 N 20 31 30.12 1020 10 16 N/A
6:15 pm 18:15 Cloudy 38 3.5 32 -0.1 78 78 N 18 30 30.12 1020 10 16 N/A
6:35 pm 18:35 Cloudy 38 3.5 32 -0.2 77 77 N 18 30 30.12 1020 10 16 N/A
6:55 pm 18:55 Cloudy 38 3.1 31 -0.7 76 76 N 21 33 30.14 1021 10 16 N/A
7:15 pm 19:15 Cloudy 37 2.8 31 -0.6 79 79 N 18 30 30.15 1021 10 16 N/A
7:35 pm 19:35 Cloudy 37 2.6 31 -0.7 79 79 N 22 35 30.16 1021 10 16 N/A
7:55 pm 19:55 Cloudy 36 2.4 31 -0.5 81 81 N 16 26 30.17 1022 10 16 N/A
8:15 pm 20:15 Cloudy 36 2.3 32 -0.2 84 84 N 17 28 30.18 1022 10 16 N/A
8:35 pm 20:35 Cloudy 36 2.2 32 -0.1 85 85 NNW 18 30 30.19 1022 10 16 N/A
8:55 pm 20:55 Cloudy 36 2 32 -0.2 86 86 N 21 33 30.19 1022 10 16 N/A
9:15 pm 21:15 Cloudy 36 2 32 -0.2 86 86 NNW 20 31 30.19 1022 10 16 N/A
9:35 pm 21:35 Cloudy 35 1.7 31 -0.3 87 87 NNW 17 28 30.20 1023 10 16 N/A
9:55 pm 21:55 Mostly Cloudy 35 1.7 31 -0.5 86 86 NNW 18 30 30.21 1023 10 16 N/A
10:15 pm 22:15 Mostly Cloudy 35 1.5 31 -0.5 87 87 N 14 22 30.21 1023 10 16 N/A
10:35 pm 22:35 Partly Cloudy 34 1.1 31 -0.6 89 89 NNW 12 19 30.22 1023 10 16 N/A
10:55 pm 22:55 Partly Cloudy 34 1.1 31 -0.8 87 87 NNW 13 20 30.23 1024 10 16 N/A
11:15 pm 23:15 Mostly Cloudy 34 1.3 31 -0.8 86 86 N 13 20 30.22 1024 10 16 N/A
11:35 pm 23:35 Cloudy 34 1.2 31 -0.7 87 87 N 9 15 30.25 1024 10 16 N/A
11:55 pm 23:55 Cloudy 35 1.4 31 -0.5 87 87 N 9 15 30.24 1024 10 16 N/A

Powered by AerisWeather